Theta_e
312 312 312 312 312 313 314 317 318 320 322 324 323 321 325 332 323 320 339 347 330 324 329 328 329 333 335 338 336 328 327 335 340 343 345 345 345 346 346 347 348 348 348 349 349 349 350 350 350 350 350 350 351 351 351 352 352 352 353 353 352 353 353 353 353 352 352 352 352 352 351 350 350 348 346 345 343 340 338 336 335 335 334 334 333 331 331
311 311 311 312 313 315 316 318 320 322 324 325 325 324 327 331 329 330 342 348 336 327 327 328 329 330 329 331 333 331 333 338 342 343 345 345 345 347 346 347 348 348 348 349 349 350 350 350 350 350 351 351 351 351 352 352 352 353 352 353 353 353 353 353 352 353 353 352 352 352 352 351 350 349 348 346 344 341 338 336 335 334 334 334 334 332 331
311 311 313 314 314 314 316 319 324 327 329 327 323 324 328 329 330 334 338 340 337 333 336 339 335 331 333 336 337 336 336 340 343 343 344 346 346 346 347 347 348 348 348 349 350 351 350 350 351 350 350 351 351 352 352 352 353 353 353 353 353 353 353 353 352 353 353 353 352 352 352 352 351 351 350 348 346 343 340 338 336 335 335 335 334 333 332
312 311 312 313 312 315 320 323 327 330 333 330 326 330 335 332 330 335 336 334 336 338 343 347 342 339 345 349 344 338 336 339 343 343 344 345 346 346 348 348 348 348 348 349 349 350 350 350 351 349 350 351 351 352 352 352 353 353 353 354 354 353 353 353 353 353 353 353 353 353 352 353 352 352 351 350 348 346 343 340 338 336 336 335 335 334 334
314 312 311 312 316 322 329 329 325 328 334 337 338 341 340 338 338 339 335 334 338 340 342 346 345 342 344 344 340 337 339 341 342 343 344 346 345 347 348 347 348 348 348 349 350 349 350 349 350 349 349 350 351 351 352 353 353 353 354 354 353 353 353 353 353 353 353 353 353 353 353 354 354 354 353 352 350 348 346 343 341 339 337 336 336 335 335
314 312 311 318 327 332 334 331 324 324 330 336 339 341 338 337 340 339 338 340 342 341 343 345 343 341 342 343 340 337 339 341 341 342 344 345 345 347 347 347 348 348 348 348 349 349 349 348 348 348 349 350 350 351 352 353 353 353 354 354 354 353 353 353 354 353 354 354 353 354 355 355 355 355 355 354 352 351 350 347 345 341 339 337 337 337 336
314 313 316 329 341 336 330 329 324 323 326 329 334 340 338 336 338 338 340 342 342 345 346 337 336 343 350 351 348 344 341 340 343 343 343 344 346 345 346 348 348 347 348 348 349 349 349 348 348 349 349 350 350 351 351 352 352 352 353 353 354 353 352 353 353 354 354 354 354 355 356 357 357 357 357 356 355 354 352 350 348 345 341 339 338 338 337
315 316 319 328 335 330 326 327 325 323 325 326 330 338 340 337 335 337 340 341 341 348 349 338 336 346 352 352 354 352 348 341 341 343 342 344 346 345 346 348 347 348 348 348 348 348 348 348 349 349 349 350 350 350 351 351 351 352 352 353 353 352 353 353 353 353 354 355 356 357 358 358 358 358 359 358 357 356 355 353 352 350 347 344 340 339 338
316 317 316 319 327 331 331 330 325 322 324 325 327 335 340 337 334 335 338 340 341 347 349 344 341 344 351 357 359 357 355 348 342 342 343 343 344 345 346 346 346 347 347 347 348 348 348 348 348 347 348 349 349 350 350 351 352 352 352 353 352 352 353 353 353 355 355 357 358 359 359 360 359 360 360 359 359 358 357 356 355 354 352 348 345 343 342
316 315 315 319 330 338 335 328 323 322 325 325 324 331 340 338 333 333 337 340 342 345 347 347 346 349 360 366 361 358 360 356 347 343 344 341 342 343 343 345 346 346 346 346 348 348 348 347 347 347 348 348 349 350 351 351 352 353 353 353 353 353 353 354 355 356 357 359 359 360 361 361 361 360 361 361 361 360 360 359 359 357 355 352 350 347 345
312 312 314 319 327 334 330 324 323 324 327 326 326 336 344 338 332 333 336 339 341 343 346 348 351 358 366 367 360 357 361 361 356 351 347 344 343 343 343 343 343 344 345 345 346 347 347 348 348 348 348 349 350 350 351 352 353 353 353 353 353 354 354 354 356 358 358 360 361 361 362 362 362 362 362 362 362 362 362 362 360 359 358 356 354 351 348
312 313 315 318 325 330 326 323 325 327 327 327 333 344 346 335 330 331 334 337 340 342 344 348 353 359 364 364 359 357 358 360 360 359 356 352 349 347 346 345 344 344 344 345 345 347 348 348 349 348 348 348 349 349 350 351 352 352 353 353 353 355 355 356 357 358 360 362 362 362 363 363 362 363 363 363 363 363 362 363 362 361 360 358 357 355 352
313 315 314 315 324 329 324 323 327 327 328 333 340 344 338 331 329 330 331 335 337 339 344 348 351 356 359 358 357 356 355 357 357 357 358 359 358 356 354 353 351 349 349 348 349 351 351 350 350 350 349 350 351 351 351 352 353 353 354 354 356 356 357 358 359 360 361 363 363 363 363 363 363 363 363 364 363 363 363 363 362 362 361 360 359 358 356
314 314 313 316 324 327 324 325 327 327 330 336 337 335 331 328 328 329 329 331 333 336 340 344 346 351 354 355 355 354 353 353 352 352 353 354 357 359 361 360 358 357 356 356 356 356 357 357 356 354 355 354 355 356 357 357 357 358 359 361 360 361 361 361 362 362 363 363 363 363 364 363 364 364 363 364 364 364 364 363 363 362 362 361 360 359 358
315 313 314 320 326 326 324 327 327 326 328 330 328 328 328 327 327 327 327 329 331 332 336 339 342 347 350 351 352 351 350 350 350 349 349 349 350 351 353 356 357 359 359 358 358 359 359 359 360 359 360 359 360 360 359 360 359 360 361 363 363 363 364 363 364 364 364 364 364 364 364 364 364 364 364 364 364 364 363 364 363 363 362 362 361 361 359
316 317 320 322 323 323 324 327 327 324 322 322 323 325 327 326 325 325 326 327 329 328 330 334 339 343 347 349 351 351 350 349 348 348 348 349 348 346 344 344 344 347 349 349 350 352 351 353 356 358 358 361 360 361 361 361 362 362 362 363 364 365 365 365 365 364 364 365 365 364 365 364 365 365 365 364 364 364 364 364 364 363 363 362 362 361 360
315 317 320 320 320 322 322 323 324 322 320 319 319 321 323 323 322 322 323 325 327 324 324 330 335 338 342 347 349 351 351 349 348 347 346 348 350 349 347 344 339 337 338 337 338 338 339 340 344 346 350 353 355 357 359 359 360 362 361 361 363 363 363 365 365 365 365 365 365 365 365 365 365 365 365 365 364 364 364 364 364 363 363 363 362 361 361
314 315 316 315 318 322 320 319 320 320 318 317 317 318 320 320 319 319 320 324 327 325 322 327 332 333 336 344 347 349 351 350 348 347 346 347 349 350 349 349 346 341 337 334 333 333 333 335 336 336 338 341 344 347 350 351 354 357 358 359 360 360 360 361 361 362 363 363 364 364 364 364 364 365 365 365 364 364 364 364 364 363 363 363 362 362 361
314 316 316 312 314 319 320 317 318 317 315 314 315 317 318 317 318 318 318 321 328 328 323 324 326 326 331 338 342 345 348 350 349 348 347 347 348 350 351 352 351 348 342 337 335 335 335 335 336 335 334 336 339 341 341 342 345 347 349 352 355 356 358 358 358 359 359 360 361 362 362 363 364 364 364 364 364 364 364 363 363 363 363 362 362 362 362
312 314 313 311 313 318 318 316 317 318 315 313 314 315 316 316 316 318 317 318 325 328 325 322 320 321 326 334 339 341 344 346 348 349 349 349 348 348 350 350 351 350 347 345 343 341 339 338 338 337 337 340 345 348 349 349 349 348 348 348 348 349 352 355 356 357 358 357 358 359 360 362 363 363 364 364 364 364 364 364 364 363 363 363 363 362 362
310 310 312 312 314 315 315 314 316 317 316 315 313 313 314 315 315 316 317 317 320 322 322 320 318 319 323 330 335 339 341 342 345 347 348 350 349 348 348 349 349 349 348 347 346 344 341 340 338 336 337 339 343 348 353 356 356 355 355 352 350 350 350 351 353 355 356 357 357 358 359 360 362 363 364 364 365 364 364 364 364 364 363 363 363 362 363
310 310 311 313 312 312 312 313 314 315 316 316 314 312 314 315 315 316 319 319 317 317 318 318 316 317 320 324 328 334 338 341 343 345 346 348 348 349 348 348 348 348 346 346 346 344 342 339 336 334 334 333 336 343 353 359 359 358 358 357 355 355 355 355 356 355 356 357 358 358 358 358 359 361 362 363 365 365 364 365 364 364 365 364 365 365 366
310 310 310 311 311 310 310 311 312 313 315 316 315 313 313 315 315 316 319 322 320 316 315 316 316 315 316 318 321 326 334 339 341 344 346 347 347 348 349 348 347 347 346 345 344 343 342 340 338 338 338 337 339 343 350 357 359 360 361 359 358 359 359 360 360 359 359 359 359 358 358 358 359 360 361 362 364 365 365 365 365 366 367 367 367 368 367
309 309 309 309 310 310 310 311 312 312 313 315 317 315 313 313 314 314 316 320 322 318 314 314 316 314 314 316 318 320 326 333 338 341 344 346 347 348 348 348 348 347 347 345 344 343 343 343 344 345 345 344 345 347 349 353 358 361 363 362 361 360 360 362 362 361 361 360 359 359 358 359 361 361 362 363 364 365 366 367 367 368 368 368 369 369 368
308 309 309 309 309 310 310 310 311 311 311 314 316 315 313 313 314 314 314 316 318 317 315 314 314 314 314 315 317 318 320 324 332 338 342 344 345 346 347 348 348 348 348 347 347 345 344 344 344 346 348 349 348 348 349 351 356 360 362 363 363 362 362 362 362 362 361 360 360 360 359 359 360 362 363 364 364 365 367 368 369 369 370 369 369 369 368
309 309 309 309 309 310 310 310 310 310 311 313 314 314 314 313 314 313 313 314 313 313 314 314 313 313 314 314 315 318 319 320 325 332 339 343 344 345 346 347 348 349 348 347 347 346 344 343 343 345 346 348 349 349 350 351 354 356 358 360 362 363 364 364 363 362 362 361 361 361 361 361 362 363 364 366 366 366 367 367 367 367 369 369 368 369 369
311 311 310 309 309 310 311 311 310 311 311 313 313 313 313 313 313 313 313 313 313 312 312 313 313 313 313 313 315 317 318 320 320 323 330 339 343 344 345 346 346 347 347 347 347 345 344 343 343 344 344 345 346 347 349 350 353 356 358 359 360 362 363 364 364 363 362 362 362 362 363 363 364 365 366 367 367 367 367 365 364 365 367 367 366 366 366
315 315 313 311 311 311 312 311 310 310 311 312 312 312 312 312 313 313 313 313 312 311 312 313 313 312 313 312 314 316 318 320 321 320 321 328 336 342 344 345 346 347 346 345 346 346 344 344 345 344 345 345 345 345 346 348 350 354 358 360 361 362 363 365 365 364 364 364 365 364 365 366 366 366 367 367 367 367 366 365 364 365 365 364 363 363 362
316 315 315 314 314 314 313 311 311 310 310 311 312 313 312 312 312 313 313 313 313 313 315 316 313 311 313 313 314 319 323 323 323 322 319 321 328 337 343 344 345 346 346 346 345 346 345 345 344 344 344 345 345 346 347 347 349 352 356 359 361 362 363 364 365 366 365 366 366 367 367 367 367 367 367 367 366 365 365 364 363 363 363 363 362 360 355
314 314 314 314 314 314 312 311 310 310 310 311 312 312 311 312 313 313 313 313 312 314 319 319 315 312 314 315 315 321 328 328 325 323 321 320 322 331 339 343 344 345 346 346 346 346 346 345 344 343 344 344 345 346 347 348 349 351 353 356 359 362 362 363 364 365 365 366 366 367 367 366 366 366 366 365 364 363 363 363 362 360 359 357 355 353 348
313 314 313 313 313 313 312 311 310 310 310 310 310 311 311 312 313 313 313 313 312 314 319 321 319 317 317 317 317 323 331 334 332 330 328 325 322 326 333 340 343 344 345 345 346 346 345 345 345 344 344 344 344 345 346 347 349 350 352 354 357 359 361 361 362 362 364 364 364 365 366 366 364 364 364 363 362 360 359 358 357 354 351 348 345 343 341
313 314 314 313 313 312 311 310 310 310 310 310 310 311 312 312 312 312 312 314 315 316 317 319 321 323 322 319 318 323 331 334 334 334 334 333 329 328 332 337 341 344 344 344 345 345 345 345 345 345 345 344 344 344 345 346 347 349 350 352 354 356 358 359 360 361 361 362 362 362 362 362 359 358 357 358 357 354 351 350 349 346 343 339 336 335 334
313 315 315 314 313 312 311 310 310 310 310 310 311 311 312 311 311 312 314 316 318 318 317 317 321 325 326 323 323 326 330 332 333 333 335 334 333 334 335 338 341 343 344 344 345 345 345 345 345 345 345 345 344 344 344 345 346 348 349 350 352 354 355 355 357 358 358 358 358 358 358 357 355 353 352 352 351 349 346 344 341 337 334 333 333 333 333
314 315 315 314 313 312 311 311 310 310 310 311 311 312 313 313 314 315 318 320 319 319 318 319 321 323 326 327 328 329 330 331 332 333 333 334 334 335 336 338 340 341 343 344 344 345 345 345 344 343 343 344 345 345 345 345 345 346 347 348 350 352 352 350 351 354 354 354 355 354 352 350 349 348 347 346 345 343 339 336 334 333 332 333 333 333 333
313 314 314 313 312 311 311 311 311 312 313 314 315 316 317 318 319 319 320 321 320 319 321 322 323 324 327 329 329 329 330 331 331 331 332 333 334 334 336 337 338 339 341 343 343 344 344 344 342 342 342 343 344 345 345 345 345 345 345 346 347 349 349 348 347 348 349 351 352 351 346 343 343 342 340 339 337 335 333 333 333 332 332 332 331 332 332
311 312 313 313 312 312 313 313 314 315 316 317 317 318 318 319 319 320 319 319 319 321 323 323 324 325 327 328 327 328 329 330 330 330 331 332 333 333 335 337 337 338 340 341 341 342 343 342 341 341 342 342 343 343 343 344 344 343 343 345 345 346 347 346 345 345 344 344 345 346 343 339 337 336 335 334 333 332 332 332 332 332 331 331 331 331 331
309 310 311 312 312 312 312 312 313 314 314 315 315 315 316 317 317 318 318 318 319 320 322 323 324 324 325 326 326 327 327 327 328 329 330 330 330 332 334 335 335 336 338 338 338 339 341 341 341 341 342 342 342 342 342 342 343 342 342 343 344 345 345 344 344 343 341 339 339 340 339 337 335 335 334 334 333 333 333 333 332 332 332 332 332 331 331
307 308 309 310 311 311 311 311 311 311 311 312 312 313 313 314 315 316 316 316 316 317 319 320 322 322 323 323 324 324 324 324 325 326 327 327 330 332 332 330 329 331 332 331 333 336 339 340 340 341 341 341 340 340 340 340 341 341 341 343 344 343 343 342 342 342 341 339 338 337 337 336 336 336 335 335 334 334 334 333 333 332 332 332 332 332 332
307 307 307 308 309 310 310 310 311 311 311 311 310 310 311 312 312 313 314 313 313 315 316 317 319 320 320 320 321 320 320 320 321 323 324 326 329 330 327 324 323 323 324 325 329 332 335 337 339 340 339 338 338 337 338 338 339 340 340 341 343 342 341 341 340 340 339 339 338 337 337 337 336 336 335 335 334 334 334 334 334 333 333 333 333 332 332
306 306 306 307 307 308 308 309 309 310 310 311 310 310 310 310 310 311 311 311 311 312 313 314 316 317 316 316 316 316 315 316 317 319 321 323 325 325 323 320 319 320 321 323 326 328 329 332 336 338 337 336 336 336 336 336 337 337 338 338 339 340 340 339 338 337 337 337 337 337 337 337 336 336 335 335 334 334 333 333 333 333 333 333 333 333 332
305 306 306 306 306 307 307 308 308 308 309 309 310 310 310 309 309 309 309 309 310 310 311 311 313 313 312 312 313 313 313 314 314 316 318 320 321 321 320 318 318 319 321 323 324 325 325 326 329 331 332 332 332 332 334 335 335 335 335 335 336 336 337 337 336 336 335 335 336 336 336 336 335 335 334 333 333 332 332 332 332 331 331 332 332 331 331
305 305 305 305 305 305 306 306 307 307 307 307 308 309 309 309 309 309 308 308 308 308 309 309 310 310 310 310 310 311 312 312 312 314 316 317 317 317 317 316 316 318 320 321 322 324 324 324 324 325 327 327 327 327 329 330 330 329 329 330 331 332 333 334 334 334 334 334 334 334 333 333 333 332 331 331 331 330 330 330 330 330 330 330 330 330 329
305 305 305 305 305 304 304 305 306 307 307 306 307 307 308 308 308 309 309 308 307 307 307 307 308 308 308 308 309 309 309 310 310 311 312 313 313 314 314 314 315 316 318 319 320 321 321 322 322 322 323 324 324 324 324 325 324 322 322 323 324 325 326 327 328 330 330 331 330 330 330 330 330 329 328 328 328 327 326 327 327 326 327 327 327 327 327
306 305 305 305 305 304 304 304 304 305 306 306 306 306 307 307 307 307 308 308 308 308 307 307 307 307 307 307 307 307 307 308 308 308 309 309 310 310 310 311 312 313 314 315 316 317 318 319 319 320 321 321 321 322 321 321 321 320 320 320 320 320 320 320 321 322 324 324 325 325 325 325 325 324 324 324 324 324 324 324 324 324 324 324 325 324 324
306 306 305 305 305 304 304 304 304 304 305 306 306 306 306 306 306 306 306 307 307 308 308 308 308 307 307 307 307 307 306 306 307 307 307 307 307 308 308 309 310 310 311 312 312 313 314 314 315 316 317 318 318 319 319 319 319 318 318 318 318 318 318 318 317 317 318 318 319 319 320 320 321 321 321 321 321 321 321 321 320 320 320 321 321 321 321
306 306 306 305 305 304 304 304 304 304 304 305 305 305 305 306 306 306 306 306 306 306 307 307 308 308 307 307 307 306 306 306 306 306 306 306 306 306 306 307 307 308 308 309 309 309 310 311 311 311 312 313 313 314 314 315 315 315 315 315 315 315 315 315 315 315 315 315 315 315 315 315 315 316 316 317 318 318 317 317 317 317 317 317 317 317 317
305 305 305 305 305 304 304 304 304 304 304 304 305 305 305 305 305 306 306 307 307 306 306 306 306 306 306 306 306 306 305 305 305 305 305 305 305 304 305 305 305 306 306 306 307 307 308 308 308 309 309 309 310 310 310 310 311 311 311 310 310 310 310 311 311 311 312 312 312 312 311 310 310 310 310 311 311 311 311 311 310 310 309 310 310 310 310
304 304 304 304 304 304 303 303 304 304 304 304 304 304 305 305 305 305 306 307 307 307 306 306 306 306 306 306 306 306 305 305 305 305 304 304 304 304 304 304 304 305 305 305 305 306 306 306 306 307 307 308 308 308 308 308 308 308 308 308 308 308 308 308 308 308 308 308 309 309 308 308 307 307 307 307 307 306 306 306 305 305 305 305 305 305 306
303 303 303 303 303 303 303 303 304 304 304 303 303 303 304 304 305 305 305 306 307 307 307 307 307 306 306 305 305 305 305 305 306 305 305 304 304 304 304 304 304 304 304 304 304 304 305 305 305 306 306 306 306 307 307 307 307 307 307 307 307 307 307 307 307 307 307 307 306 306 306 306 306 305 305 305 304 304 304 303 303 302 302 302 302 302 302
302 303 302 303 303 303 303 303 303 304 303 302 302 302 303 303 303 304 304 305 305 306 307 307 307 307 306 305 305 305 305 305 305 305 305 305 305 304 304 304 304 304 304 304 304 304 304 304 304 304 305 305 305 306 306 306 306 306 306 306 306 306 305 305 305 305 305 305 305 305 305 305 304 304 304 303 303 303 302 302 302 301 300 300 300 299 299
302 302 302 302 302 303 302 302 303 303 303 302 301 301 302 302 302 302 303 303 304 305 305 306 306 306 306 305 305 305 305 305 305 304 305 305 304 304 304 304 304 304 304 304 304 304 304 304 304 304 304 304 304 305 305 305 305 305 305 305 305 305 305 305 305 305 304 304 304 304 304 304 303 303 303 302 302 302 301 301 300 300 300 299 299 299 298
301 301 301 301 302 302 303 302 302 302 303 302 302 301 301 301 301 302 302 302 302 303 303 304 305 305 305 304 304 304 304 304 304 304 304 304 304 304 304 304 304 304 304 304 304 303 303 303 303 304 304 304 304 304 304 304 304 304 304 304 304 304 304 304 304 304 303 303 303 303 303 302 302 302 301 301 301 300 300 300 300 299 299 299 298 298 298
Wind_Speed
12 14 16 16 13 12 13 15 16 19 18 13 11 12 8 10 9 9 6 7 10 14 16 13 10 9 10 11 12 17 23 24 25 31 34 35 38 39 40 42 44 46 48 49 50 51 52 52 51 50 50 50 50 50 51 51 51 51 51 51 51 50 50 50 49 46 44 43 42 41 40 39 39 39 39 39 38 36 36 36 36 36 36 37 37 37 38
15 16 14 12 10 9 12 15 16 17 18 16 13 11 9 11 9 7 7 10 12 14 13 11 9 9 10 11 11 13 17 20 24 29 32 33 36 39 41 44 46 48 50 50 51 51 52 52 51 51 51 51 51 51 50 50 50 50 50 50 50 50 50 50 48 47 46 45 43 42 40 39 38 39 39 39 38 38 37 36 36 36 36 36 37 38 38
13 13 8 8 9 10 12 14 12 13 13 13 12 9 8 8 6 4 5 8 10 9 7 7 8 8 7 8 9 12 19 24 27 29 30 32 35 39 42 45 47 49 49 48 48 49 51 52 52 52 52 52 52 50 50 49 49 49 49 49 49 49 49 48 47 46 46 45 44 43 41 40 39 40 39 39 39 39 38 37 36 36 36 37 37 37 38
9 8 7 13 16 12 10 8 11 15 9 3 5 3 1 2 5 6 5 5 7 6 5 5 5 6 4 8 8 11 17 23 27 29 30 32 35 38 42 45 47 48 46 46 46 48 50 51 51 52 52 51 51 51 50 49 47 47 47 48 48 48 48 47 46 46 45 44 44 43 41 40 39 39 39 40 40 40 39 39 37 37 37 37 38 38 38
6 6 11 16 13 8 6 3 9 14 11 8 7 9 11 7 1 5 5 6 5 7 8 6 3 3 4 6 5 9 15 21 28 32 32 35 38 40 43 45 46 47 46 47 48 49 50 51 51 51 51 51 52 51 50 48 46 46 46 47 47 47 46 46 46 45 45 44 44 43 42 41 39 39 40 41 41 40 40 39 39 39 38 38 38 38 39
5 9 14 11 2 1 4 1 8 12 11 11 11 9 10 11 6 2 3 5 7 9 8 6 5 3 1 3 3 5 13 20 27 31 33 37 39 40 43 45 46 47 47 47 48 48 49 49 49 49 49 50 49 48 47 47 46 46 46 46 46 46 45 45 45 44 44 44 43 42 41 40 40 40 40 40 41 41 40 40 40 40 39 39 39 39 39
4 8 9 3 5 3 5 1 7 10 8 7 7 5 11 15 13 11 8 8 10 9 6 3 2 1 8 18 18 7 6 18 24 28 31 35 38 39 41 42 43 44 45 46 45 46 47 47 46 46 47 47 46 45 46 46 46 46 46 46 46 45 45 44 43 43 43 42 42 41 40 40 40 39 39 39 40 40 40 40 39 39 39 39 39 39 39
3 3 4 1 4 7 9 4 6 11 9 10 9 7 13 18 15 13 12 12 12 9 5 6 4 6 4 20 26 21 6 12 21 24 28 32 36 38 40 42 44 44 44 45 46 46 45 44 43 44 45 45 45 45 45 45 45 45 46 46 46 45 44 43 42 42 41 41 40 39 39 39 39 38 37 37 38 38 39 39 39 38 39 39 39 39 39
2 2 3 3 5 8 5 1 6 10 6 9 9 4 8 14 13 13 12 12 13 10 8 11 11 14 6 13 20 26 19 1 15 20 23 26 30 34 37 40 42 43 43 44 44 43 42 41 41 42 43 44 44 43 42 43 43 44 44 45 45 44 43 41 41 40 40 39 38 38 38 38 38 36 34 34 35 35 37 38 38 38 38 38 38 39 39
1 2 3 3 3 3 1 3 10 10 8 8 8 4 2 10 15 17 13 12 14 10 10 15 16 10 3 7 11 22 24 13 8 13 16 19 23 26 30 33 34 35 35 36 37 38 38 38 39 39 40 41 41 41 41 41 42 43 44 44 44 44 42 40 39 39 38 38 37 37 37 37 35 33 32 32 32 32 33 34 34 34 34 35 36 38 38
2 2 2 2 3 3 4 10 16 18 15 11 6 2 3 9 17 21 17 12 13 12 13 16 12 2 6 3 7 17 23 21 18 16 15 15 18 20 22 25 26 27 29 30 31 33 34 35 36 37 37 37 38 39 40 40 41 43 44 44 43 42 41 38 38 38 38 37 37 37 36 35 33 31 30 30 29 29 30 31 31 30 31 33 34 35 36
4 4 3 2 3 4 8 12 17 25 27 15 2 3 4 9 17 23 20 15 15 17 18 15 8 6 7 3 6 15 21 26 28 27 24 20 19 19 19 20 22 24 25 26 26 26 28 30 31 31 31 32 34 37 38 39 41 42 43 43 42 41 40 38 37 38 38 38 37 36 36 34 32 30 29 29 29 30 30 30 30 30 31 32 32 32 33
5 5 3 3 3 2 8 15 21 28 24 8 4 4 5 11 18 22 21 19 20 21 20 14 9 11 14 14 17 22 26 30 32 32 32 30 27 25 23 22 23 23 24 24 24 23 23 24 26 26 27 28 30 32 35 37 38 38 39 39 40 41 41 40 39 38 38 38 37 36 34 33 31 31 30 30 30 30 30 30 30 30 31 31 31 31 32
3 4 2 4 3 1 9 18 23 22 11 1 3 7 10 14 18 20 21 22 24 25 23 18 15 19 24 24 26 29 31 32 32 31 32 33 32 31 30 28 28 28 28 27 26 24 21 21 21 22 23 25 26 28 30 32 32 32 33 35 36 38 39 40 40 39 38 38 38 36 35 34 33 33 32 31 31 31 31 31 31 31 31 31 31 31 31
2 3 2 2 2 5 15 18 15 11 7 3 8 11 13 17 20 21 22 23 26 29 28 23 21 25 28 27 28 30 31 32 31 30 29 29 30 30 30 28 27 28 29 28 25 23 21 20 19 18 19 20 21 24 27 28 27 28 30 32 33 35 36 37 38 38 38 38 37 37 36 35 35 34 33 33 33 33 33 33 33 33 33 32 32 32 31
1 1 0 1 2 6 14 11 4 7 10 12 16 15 14 20 25 26 26 27 29 31 31 27 24 26 28 27 28 29 30 31 31 29 27 26 26 26 27 25 23 23 24 23 21 19 17 16 16 15 16 16 17 19 20 22 24 26 28 29 31 33 34 35 36 37 37 37 37 37 36 35 36 35 34 34 34 34 34 34 34 34 33 33 33 32 32
2 3 3 3 3 6 12 10 7 11 13 16 21 21 19 23 27 28 29 30 29 31 32 29 25 29 31 29 28 28 28 29 29 29 27 25 24 24 23 22 21 20 20 19 17 15 13 12 12 13 13 15 15 15 16 17 19 20 22 25 27 29 31 32 33 34 35 36 36 36 36 36 37 36 36 36 36 36 36 36 36 35 34 34 34 32 31
5 6 4 4 6 6 10 12 12 14 14 14 16 19 20 22 26 28 29 30 29 30 30 30 29 33 34 31 30 28 26 27 27 27 27 25 23 22 21 20 19 18 18 17 15 14 12 9 8 8 9 11 12 13 14 16 17 18 19 21 23 25 26 27 27 28 29 31 32 33 34 35 36 36 36 36 36 36 36 36 36 35 34 34 33 33 31
6 2 3 10 9 2 9 11 11 13 15 15 13 13 16 19 22 25 27 29 30 29 28 29 32 34 34 33 32 29 27 26 25 25 25 24 23 22 21 19 17 16 16 16 14 12 10 7 6 5 5 6 7 8 10 12 14 16 18 20 21 22 23 24 24 24 24 25 26 27 28 31 33 35 36 36 36 36 36 36 36 35 34 34 33 32 31
7 5 7 16 14 3 10 10 8 8 12 14 12 11 14 17 19 21 23 25 27 27 27 29 30 31 32 32 31 30 28 26 24 23 22 21 20 20 20 18 16 16 16 15 13 11 9 7 4 2 3 4 5 6 6 7 8 9 12 15 17 19 20 21 22 24 24 24 23 23 24 27 31 33 35 36 37 37 36 36 35 34 33 33 32 30 28
9 8 7 11 9 2 5 11 11 6 7 9 11 12 13 14 16 18 19 20 21 22 24 26 27 28 29 29 28 27 26 25 23 21 19 18 18 18 18 17 16 16 16 14 13 12 10 8 5 2 2 4 6 6 6 7 7 7 7 9 11 14 16 18 20 22 24 24 23 23 23 25 28 31 34 36 37 37 36 35 34 32 31 30 28 26 25
6 5 3 6 5 4 7 12 14 11 7 5 7 12 11 10 12 13 14 15 16 17 19 21 23 25 25 25 25 25 24 23 23 21 18 17 17 17 17 17 16 16 16 16 15 14 13 10 7 4 4 6 8 9 9 8 8 8 7 7 8 11 14 18 20 22 24 25 25 24 24 25 26 28 31 32 33 34 34 33 32 31 29 27 24 22 22
9 13 15 15 12 13 17 17 15 15 11 5 4 9 9 7 6 8 9 10 13 15 17 18 19 22 22 21 21 22 21 21 20 19 17 17 16 16 16 16 16 17 17 17 17 16 15 13 10 7 5 5 7 9 11 11 10 8 8 8 8 9 12 15 18 20 22 24 25 25 25 26 26 27 28 30 30 31 31 30 29 28 26 23 21 20 19
19 24 25 23 21 21 23 21 18 16 13 5 1 5 9 9 8 8 8 9 10 13 16 17 17 20 21 19 18 18 18 18 17 16 15 14 13 13 13 13 14 15 14 15 15 15 15 14 13 10 8 6 5 5 8 11 11 9 7 7 9 10 10 12 15 18 21 23 25 26 26 26 27 27 28 28 28 29 28 27 26 25 24 22 21 20 20
26 30 28 26 28 32 31 28 25 22 16 6 1 4 9 11 10 10 10 9 10 12 16 17 18 20 21 18 16 15 14 15 15 14 13 11 10 10 11 10 11 11 10 10 10 11 13 15 14 12 11 10 9 8 6 7 10 11 9 8 8 10 10 12 14 17 20 23 25 26 26 25 26 26 27 27 27 27 26 25 24 23 23 22 22 22 21
32 35 33 30 32 37 36 30 24 19 13 6 2 3 7 10 12 13 12 11 12 14 16 17 20 21 20 18 15 13 12 12 12 13 12 11 10 10 10 10 9 9 8 8 8 10 13 14 14 13 12 11 11 11 9 7 6 9 10 10 9 10 11 12 14 16 19 21 23 24 24 24 24 24 25 25 25 24 24 23 24 23 22 23 23 22 21
28 29 27 23 24 31 35 31 25 18 11 8 4 3 6 8 11 15 16 15 15 17 17 17 19 20 19 17 14 12 10 10 10 11 11 12 12 12 12 11 8 7 7 8 9 10 12 13 13 12 12 11 11 11 10 9 8 6 6 8 9 10 11 12 14 15 17 19 21 22 23 23 23 23 23 23 23 22 22 21 21 21 21 20 19 18 17
18 20 21 21 23 29 33 31 28 25 21 18 12 6 7 9 11 15 17 18 18 19 18 16 16 17 18 17 15 11 10 9 9 9 10 11 12 13 11 10 8 6 6 7 8 8 10 10 10 11 10 10 11 11 11 11 11 9 6 6 8 10 11 13 14 16 17 19 20 21 22 22 23 23 23 23 22 22 21 20 20 20 21 19 17 17 16
16 19 20 21 24 29 30 28 25 23 22 21 18 11 10 14 14 14 15 15 16 16 15 15 16 17 16 16 13 10 9 9 8 9 10 10 11 12 10 9 7 6 6 7 8 8 8 8 9 10 10 10 10 11 11 12 12 11 9 7 8 10 11 13 15 16 18 20 21 22 22 23 24 23 23 24 24 23 22 20 20 21 22 21 20 21 20
22 20 19 17 18 20 25 28 28 25 22 21 21 19 18 16 13 11 12 13 13 13 11 12 17 18 16 13 11 9 8 8 9 9 9 10 11 11 10 9 7 6 5 6 6 6 6 7 8 8 9 9 9 10 11 11 11 11 10 9 10 11 12 13 15 16 17 19 20 22 23 24 24 25 25 26 25 24 23 22 22 23 24 24 23 23 22
23 20 17 14 13 14 19 23 26 26 24 21 19 19 17 13 10 10 11 12 13 12 10 10 12 13 11 11 9 8 8 9 10 10 9 9 10 11 10 9 8 7 6 5 4 3 3 4 5 5 6 7 8 8 9 9 9 10 10 10 10 12 13 14 16 17 18 19 20 22 23 24 25 27 28 27 25 24 25 25 25 25 24 23 22 20 20
19 17 15 12 10 11 13 16 19 22 21 17 14 14 12 11 11 13 12 12 12 12 12 11 7 3 4 6 8 8 10 11 10 9 8 8 9 9 9 9 9 7 6 5 4 4 4 4 4 4 4 5 6 7 7 8 8 9 9 9 10 12 14 15 17 18 20 21 22 23 24 25 27 27 26 25 24 24 24 24 23 22 21 20 19 18 17
18 14 13 10 7 9 11 13 15 16 14 11 11 13 12 12 13 13 12 11 10 11 13 12 6 2 3 4 5 8 11 11 9 8 6 6 5 5 5 6 6 6 6 6 6 6 6 6 5 4 3 4 5 6 7 7 8 8 8 8 9 12 15 15 17 19 21 21 22 23 24 25 26 24 23 23 23 23 22 21 21 21 21 19 19 18 17
24 14 10 9 6 5 7 9 11 12 12 12 12 12 12 12 11 10 9 8 9 10 11 9 5 4 5 6 6 8 10 10 8 7 4 3 3 2 3 4 5 5 6 6 7 7 8 7 6 5 4 4 5 6 7 7 8 8 8 7 8 12 16 17 18 20 22 22 22 22 23 25 25 24 24 24 23 22 21 22 23 24 23 22 20 19 18
36 28 20 14 10 6 2 4 9 11 12 13 13 12 11 11 10 9 7 6 7 8 8 7 6 5 6 7 7 8 8 8 7 5 4 4 4 5 5 6 6 7 8 8 8 8 8 8 8 7 6 4 5 7 8 8 8 8 8 8 9 12 16 19 21 23 25 25 24 23 24 26 26 25 24 25 25 25 25 26 26 25 25 24 22 20 19
42 39 33 27 23 18 13 10 12 14 14 14 13 12 11 10 10 9 7 5 5 7 9 9 8 8 7 7 6 7 8 8 7 7 7 8 9 10 10 9 8 8 10 10 8 8 9 10 10 10 8 7 6 7 9 9 9 8 9 10 12 13 17 20 22 24 27 28 28 28 27 27 28 27 27 27 28 28 28 27 27 26 25 23 22 20 19
43 40 38 35 33 30 26 23 20 18 17 16 14 13 13 12 11 10 9 8 9 13 14 13 11 10 9 8 9 10 10 11 12 12 12 13 14 14 13 10 9 10 10 9 8 9 11 12 12 12 11 10 11 12 12 11 10 10 11 13 15 16 19 22 23 24 26 29 32 33 33 33 32 32 31 29 28 28 27 27 26 25 23 22 20 18 17
43 42 39 37 36 34 31 30 28 26 25 23 21 18 16 16 15 14 13 13 15 17 17 16 15 13 13 14 14 14 14 16 17 17 18 18 17 16 14 13 12 10 8 8 9 11 14 15 15 15 15 16 16 17 18 17 14 13 14 16 18 19 21 23 25 25 25 26 28 30 32 33 32 31 30 29 28 27 26 25 23 22 21 20 19 17 15
38 40 40 39 38 36 34 33 33 32 31 30 28 26 23 21 20 19 19 19 19 20 21 21 20 19 18 19 19 19 20 21 21 21 21 20 17 17 18 21 20 17 15 10 10 13 16 17 19 19 19 20 21 21 20 21 21 20 19 19 20 21 23 25 26 26 25 25 24 25 27 28 27 26 25 24 23 23 22 21 21 20 19 18 17 14 13
33 35 37 39 39 38 36 36 35 34 34 33 32 30 29 28 27 26 25 23 22 22 24 24 24 24 23 24 24 23 23 23 24 25 25 23 21 22 24 26 25 23 19 14 12 14 16 18 21 23 22 22 24 24 23 23 24 25 25 24 24 24 24 25 25 26 26 25 25 25 26 26 25 24 23 22 21 20 20 20 19 18 18 17 15 13 12
29 30 32 34 36 36 36 35 35 35 36 35 34 32 31 31 31 31 29 28 26 26 27 28 28 29 29 29 28 28 26 26 27 28 28 28 28 29 30 29 26 24 22 18 15 15 15 16 17 20 23 24 25 25 27 27 27 26 26 26 26 27 27 27 26 26 25 25 25 25 26 26 25 24 22 21 21 20 19 19 18 18 17 16 14 12 12
26 26 27 28 30 32 33 33 33 33 34 34 33 32 31 31 32 31 30 29 29 29 29 30 30 31 32 32 33 34 33 32 32 33 32 32 33 34 35 33 29 27 26 24 23 21 20 20 20 18 18 19 20 20 22 26 27 27 27 28 27 27 27 27 27 26 26 25 25 25 25 25 24 23 22 21 20 19 18 17 17 15 14 13 12 10 10
21 23 24 25 26 27 28 29 30 30 30 30 29 29 28 29 30 31 30 30 31 31 30 30 30 31 31 33 34 36 36 35 36 38 38 38 38 37 36 34 31 30 30 31 31 30 29 28 27 25 23 20 18 17 16 17 18 20 22 25 27 28 28 27 26 26 25 25 24 23 22 22 22 21 20 19 18 16 15 14 12 11 10 10 9 8 6
18 19 20 21 21 23 24 25 25 25 26 26 26 26 26 26 27 28 29 29 30 30 29 29 30 31 32 33 34 35 35 34 34 35 36 37 37 36 34 33 32 32 33 34 35 35 34 33 31 29 28 26 25 24 24 24 23 22 22 23 25 27 29 30 29 28 26 24 23 22 21 20 19 19 18 18 17 16 14 13 11 10 10 9 8 7 6
15 17 17 17 18 19 20 21 21 21 20 21 22 24 24 23 23 24 25 26 26 27 26 26 27 29 31 33 33 33 33 33 32 32 33 34 34 32 30 30 31 31 32 34 35 36 35 33 31 29 28 28 28 29 29 29 29 29 28 26 26 26 27 28 29 29 28 27 26 24 23 22 21 20 19 18 18 17 16 14 13 12 11 10 9 8 7
14 14 15 15 16 16 16 16 16 16 16 17 19 20 20 20 20 20 20 21 22 23 24 24 25 27 29 30 30 30 30 31 31 31 31 32 32 30 28 29 30 30 30 32 33 33 31 29 28 27 26 26 27 29 30 30 30 30 30 29 28 27 26 26 26 26 26 26 26 26 26 25 24 23 22 20 19 18 17 16 15 14 13 11 10 10 9
12 13 13 12 13 14 14 13 13 14 15 17 17 16 15 15 16 16 16 17 18 19 21 21 22 24 25 26 26 26 27 28 30 29 29 29 29 28 28 28 29 29 30 31 31 30 28 27 26 25 24 23 23 24 25 26 26 27 28 28 28 27 26 25 24 22 22 22 23 23 23 23 23 23 22 21 20 19 18 17 16 15 14 13 12 11 10
11 12 11 10 11 12 13 12 12 12 13 14 14 13 12 11 11 12 13 14 16 17 17 18 19 20 22 23 24 23 24 26 28 28 27 26 26 25 25 25 26 27 28 29 28 26 25 24 24 23 22 21 21 20 20 20 21 21 22 22 22 22 22 21 21 20 19 19 20 20 20 20 19 18 18 18 18 17 16 16 15 15 14 12 11 10 8
13 11 10 10 10 11 12 12 12 12 12 12 13 12 12 12 12 12 13 13 15 17 18 18 18 18 19 20 22 22 22 23 25 24 23 23 23 23 22 22 23 24 26 27 27 25 23 23 22 22 21 20 20 20 19 19 19 20 20 20 20 19 19 18 18 17 17 16 17 17 16 16 15 14 14 15 15 15 14 14 15 14 13 12 10 9 8
14 13 12 11 10 9 10 11 12 12 12 13 13 12 12 13 15 16 15 14 15 17 18 19 21 20 19 19 20 20 20 21 22 21 20 21 22 21 20 20 20 22 23 24 24 22 21 21 21 21 20 20 19 19 18 19 20 21 21 21 21 20 19 18 16 15 15 14 14 14 14 13 12 12 11 11 10 11 11 12 13 13 13 12 12 12 12
14 14 13 12 11 8 8 9 9 9 10 11 12 13 13 14 16 16 15 14 15 15 16 17 20 21 21 20 20 19 19 19 19 19 19 20 21 21 20 20 19 20 21 21 21 20 19 19 18 18 17 17 17 17 18 18 19 19 20 20 19 19 18 17 15 15 14 14 13 13 14 13 12 11 11 10 10 10 10 11 11 12 12 13 13 14 14
12 11 11 11 10 8 7 8 9 8 8 9 11 13 14 14 15 15 15 15 16 16 16 16 17 18 18 18 18 18 17 16 16 16 16 16 17 18 18 18 18 18 19 19 19 19 19 18 17 17 16 15 16 16 16 17 18 18 18 18 17 17 16 15 14 13 13 13 12 12 12 12 12 11 11 10 9 9 9 10 10 11 12 13 14 14 14
Wind_Direction
280 277 279 275 266 261 260 264 269 272 274 267 250 241 206 158 181 226 220 183 209 241 254 253 249 251 256 250 235 225 218 204 188 184 187 190 191 191 191 192 194 195 197 200 201 202 203 203 204 206 207 209 210 212 213 214 215 216 217 219 220 221 222 225 227 229 231 232 233 235 237 238 239 240 239 239 239 239 239 239 239 237 236 236 236 237 238
294 286 279 266 260 273 283 276 267 268 267 257 249 243 207 179 193 208 186 192 218 238 246 248 256 268 263 249 237 225 209 190 179 181 186 188 188 188 190 191 194 197 199 201 202 201 201 203 204 205 207 209 210 211 212 213 214 216 217 218 220 221 223 226 228 229 229 231 232 233 235 237 239 239 239 239 239 239 240 240 240 240 239 239 239 238 239
299 294 288 285 296 302 290 279 285 294 276 246 233 229 211 192 188 176 170 202 234 251 252 250 274 299 278 229 215 210 200 188 180 182 186 187 187 189 190 191 195 198 200 201 200 199 201 204 205 207 209 210 210 211 212 213 214 215 216 218 220 222 225 227 229 229 230 231 232 234 235 237 239 239 239 239 239 239 239 239 240 241 241 241 241 241 241
291 298 329 321 318 311 283 283 327 332 323 244 190 149 83 221 191 158 150 203 245 282 302 276 291 335 282 215 200 203 201 190 182 183 186 187 188 189 190 192 196 198 198 199 199 200 202 205 206 208 210 209 209 211 212 212 213 214 216 219 221 224 227 228 230 231 232 233 233 235 236 238 239 240 240 240 240 239 239 239 239 240 241 241 242 242 244
277 303 328 317 317 314 273 294 357 345 351 24 51 57 32 357 210 160 185 225 264 307 306 277 270 334 282 239 202 196 198 191 187 187 188 188 190 191 192 194 196 197 199 200 202 203 204 206 209 211 211 211 212 212 211 211 212 213 216 219 222 225 228 229 231 232 233 234 235 235 237 238 240 241 240 240 240 240 240 240 241 241 241 242 243 243 244
286 309 316 309 301 172 236 147 29 354 354 25 43 56 33 10 15 30 246 259 301 307 284 257 240 242 343 52 71 194 201 196 193 192 192 191 192 193 194 196 198 199 201 203 204 205 207 210 212 213 213 214 215 213 211 211 213 214 216 219 222 226 229 230 232 233 234 235 236 237 238 239 240 241 242 242 242 242 242 242 242 242 243 243 244 244 245
285 308 321 314 157 191 283 339 28 356 347 12 23 52 40 24 13 359 340 323 317 301 277 302 304 196 77 66 55 41 215 208 202 196 194 194 194 194 195 197 199 201 201 202 204 207 209 211 213 213 214 215 215 214 214 213 214 215 218 221 224 227 229 231 232 233 234 235 237 238 239 239 240 242 243 244 244 244 244 244 244 245 245 246 246 246 246
280 309 333 224 212 300 313 304 353 355 355 355 354 20 29 19 9 357 344 328 321 312 322 2 319 257 45 55 45 30 13 217 212 203 198 197 196 196 197 199 202 204 205 206 207 209 211 212 213 215 215 215 215 215 216 215 215 217 219 222 225 227 229 230 232 233 234 235 236 238 238 239 240 241 243 245 245 245 245 246 247 247 247 248 248 248 249
236 291 301 277 284 313 322 308 345 341 327 331 337 351 13 9 5 356 342 330 330 332 347 347 302 268 306 37 28 17 22 138 211 209 204 203 200 199 200 202 204 207 208 209 210 211 212 213 216 217 217 216 215 215 215 216 217 218 220 222 225 227 229 230 232 233 234 235 236 237 238 238 239 241 243 244 245 245 245 246 247 247 248 249 249 250 250
259 336 321 319 300 280 266 337 323 302 270 287 294 258 348 2 360 354 347 340 339 345 357 340 309 285 3 34 3 8 26 58 148 184 195 201 200 200 201 202 204 205 206 208 209 210 213 214 215 217 216 215 215 215 216 217 217 218 221 223 226 227 229 231 232 233 235 236 237 237 238 238 240 241 243 244 245 245 245 246 248 249 250 251 251 252 252
302 316 299 299 263 250 313 330 319 309 309 306 277 209 32 360 353 352 350 346 349 359 2 342 322 359 81 42 347 13 34 61 92 121 146 170 184 189 193 197 199 201 203 205 207 208 211 212 213 214 215 215 216 217 218 219 218 220 222 224 227 228 230 234 235 236 236 237 238 238 239 240 241 242 243 244 245 245 246 247 249 250 251 252 252 253 254
252 257 259 268 245 267 317 325 316 311 313 313 292 106 36 350 346 349 348 350 358 4 4 355 355 74 86 68 31 38 51 66 79 94 107 123 146 160 168 178 184 188 192 195 197 200 205 209 212 214 217 218 220 222 222 221 220 223 226 227 228 230 232 235 237 238 239 238 239 240 241 242 244 244 244 245 245 245 246 247 249 250 250 251 253 254 255
246 242 247 277 256 266 317 319 316 313 310 316 78 66 360 340 344 350 353 356 359 2 8 12 26 59 71 72 63 59 65 70 73 81 92 102 115 127 136 148 158 164 169 173 176 180 189 200 206 211 215 218 222 224 224 224 227 231 232 231 230 231 232 234 235 238 240 240 241 243 243 245 246 245 245 245 245 246 247 248 249 250 250 251 253 254 256
242 223 236 282 260 350 336 322 324 330 334 55 48 358 349 347 347 350 357 4 6 7 11 17 32 58 69 69 64 61 63 66 69 74 83 92 101 111 119 127 136 142 144 149 153 156 163 176 187 195 203 210 217 222 225 229 235 240 239 236 235 235 235 235 236 237 239 241 242 243 244 245 245 245 246 246 246 248 248 249 250 250 251 251 252 254 255
233 218 236 286 251 356 352 335 333 3 31 6 341 347 353 360 1 357 359 8 13 13 11 10 25 51 61 61 62 62 60 62 66 69 73 80 88 99 108 114 122 130 133 135 138 141 147 157 164 174 187 198 208 217 224 231 237 240 240 239 238 238 238 238 239 239 239 241 242 243 244 244 245 246 247 247 247 247 248 248 249 250 251 251 252 253 254
7 191 230 349 274 346 8 6 21 63 49 19 12 11 2 5 9 5 0 4 12 16 11 4 17 41 50 53 59 60 58 59 61 63 65 68 74 85 93 99 109 120 124 124 127 132 140 152 161 171 180 188 197 206 215 225 231 236 239 239 239 239 240 241 241 241 241 241 242 243 245 245 245 246 246 246 247 247 247 248 248 249 250 250 250 252 253
311 263 277 347 16 31 40 48 69 69 51 28 22 21 14 10 10 8 2 1 9 19 12 2 13 34 40 47 55 58 58 59 57 58 61 62 66 73 80 87 96 106 110 114 119 124 130 143 161 176 186 194 200 207 212 220 227 232 236 238 239 240 241 242 242 243 243 243 243 244 245 245 245 245 245 245 245 246 246 247 247 249 249 250 250 251 253
288 266 272 5 35 72 67 54 60 65 49 21 12 18 21 17 10 7 5 2 8 19 12 360 9 27 34 40 48 51 55 57 54 54 57 59 62 67 70 76 84 92 101 107 113 117 120 128 145 164 182 196 207 216 222 225 229 233 236 238 240 240 241 243 243 243 243 243 243 244 244 244 245 246 245 245 245 245 246 246 247 248 249 250 250 251 252
308 303 353 347 338 121 100 58 57 70 51 24 12 15 18 16 9 6 7 6 11 20 16 4 7 21 30 34 38 41 44 48 49 50 51 54 58 62 65 69 74 81 90 97 101 105 108 112 126 151 174 190 205 220 230 232 233 235 238 240 241 241 241 242 243 243 243 242 242 242 241 241 242 243 244 244 245 245 245 244 245 246 247 248 249 250 252
310 299 309 321 316 181 113 54 40 79 59 32 18 10 9 11 9 3 5 11 14 19 18 9 5 15 26 30 32 35 35 37 41 44 47 50 54 58 63 66 68 72 75 78 80 83 85 85 87 129 193 206 213 221 236 247 247 244 242 241 241 241 241 240 240 241 242 242 242 241 239 237 237 238 239 240 241 243 244 244 245 246 247 248 250 251 253
300 289 304 326 323 189 93 24 10 33 60 37 13 3 4 10 11 5 4 9 13 16 20 13 3 8 21 27 29 32 31 30 32 36 41 46 50 54 60 63 64 64 62 61 58 55 54 54 45 15 279 254 247 242 245 257 265 265 257 248 243 239 237 237 235 234 236 238 239 238 237 235 234 234 235 236 238 240 242 244 246 248 251 253 255 256 255
282 264 297 343 338 286 300 328 336 345 16 38 5 360 8 19 24 21 12 5 4 12 21 17 5 5 16 24 28 30 28 26 26 28 30 35 41 49 57 60 60 58 55 52 48 41 35 29 18 352 300 275 264 255 251 254 263 268 266 261 251 239 234 235 234 232 231 232 232 234 236 236 235 234 234 235 236 238 241 243 245 248 250 254 257 257 255
273 271 281 294 293 281 283 290 298 319 342 359 351 1 12 14 17 27 26 13 5 4 9 12 7 7 13 21 27 29 26 22 22 25 26 28 33 41 49 53 55 54 51 50 45 36 29 22 16 6 336 296 270 255 248 247 252 261 265 263 258 246 238 236 235 234 233 231 230 231 233 235 236 235 235 235 235 236 239 242 244 246 248 249 249 249 249
278 278 283 289 285 278 281 286 289 305 327 344 38 15 5 353 350 1 7 7 5 358 356 359 4 7 11 18 24 26 23 18 15 18 22 26 33 39 43 49 56 57 55 52 45 36 30 27 25 25 19 2 333 291 261 248 246 250 256 260 259 254 248 243 239 237 235 232 231 230 231 232 234 234 235 236 235 234 235 236 238 241 241 241 240 240 241
274 277 279 282 280 278 280 284 286 290 297 301 91 30 357 348 350 352 347 346 351 353 353 356 359 3 7 13 18 19 17 12 7 5 8 14 25 36 41 48 58 63 61 55 48 41 36 32 28 29 29 22 10 354 322 274 252 247 247 254 258 257 257 256 248 240 235 233 232 231 231 232 234 234 235 236 236 235 232 230 230 231 234 237 239 238 238
275 276 277 277 276 274 274 276 281 284 279 251 175 31 354 342 343 340 334 335 344 348 351 355 356 356 359 3 6 5 6 8 4 358 356 357 3 17 29 35 45 59 57 44 38 39 37 31 25 21 19 14 6 359 350 331 289 257 247 248 253 255 257 260 258 249 239 235 233 231 231 233 234 234 234 235 236 236 233 229 228 228 231 235 233 231 233
278 275 271 266 264 264 262 260 261 266 260 238 232 356 355 339 333 330 326 326 330 332 337 346 349 348 349 354 356 354 352 358 2 359 354 349 347 358 14 23 28 43 48 39 35 36 34 27 17 10 7 3 355 347 342 343 339 310 265 253 256 257 252 252 256 253 245 238 235 233 232 231 230 231 230 229 230 233 233 233 232 227 221 215 207 204 209
288 283 269 254 252 259 261 259 257 253 248 247 255 291 331 320 314 318 320 322 325 327 331 338 340 340 343 348 349 347 343 345 352 355 353 345 338 341 357 14 17 16 24 29 30 30 29 21 5 354 352 353 347 340 335 337 341 342 325 288 271 265 255 249 248 247 243 238 234 230 229 228 226 226 225 225 225 225 226 227 224 215 207 200 191 187 190
319 313 294 277 271 270 266 260 253 243 234 233 237 252 289 299 300 306 312 319 326 330 331 332 330 332 341 346 340 330 326 328 333 340 345 343 333 327 336 357 9 5 7 18 23 21 18 11 357 348 349 349 346 342 338 336 338 341 334 307 278 266 259 251 244 239 233 228 224 222 222 222 220 219 218 218 217 216 213 211 209 204 202 201 198 193 187
327 323 314 304 294 279 263 253 248 242 234 229 229 241 263 279 288 298 307 313 320 326 330 330 325 326 335 343 334 314 308 313 315 318 326 331 327 321 321 332 345 350 353 5 17 17 7 355 349 351 357 358 352 344 337 335 335 335 329 307 276 261 256 249 243 236 230 226 221 217 216 216 216 217 217 211 206 204 202 200 198 196 193 192 192 189 182
327 324 321 313 299 282 265 254 249 249 249 246 244 249 257 264 275 292 302 304 307 313 324 331 327 324 330 338 330 309 295 292 292 297 306 313 316 315 312 313 322 331 333 335 343 348 337 330 331 342 356 358 351 340 332 328 326 324 321 304 276 258 251 248 242 233 229 227 222 217 216 215 211 209 208 203 198 195 192 190 188 186 182 179 179 180 178
333 330 330 323 302 284 270 254 245 246 249 247 239 235 238 251 270 284 292 295 297 305 315 323 327 326 324 327 318 297 283 278 278 284 290 295 302 309 309 306 310 313 310 301 285 265 263 275 289 310 333 337 331 327 323 318 317 317 314 299 274 252 243 242 237 227 222 220 216 212 211 208 202 196 194 191 187 183 180 178 177 175 173 170 167 163 163
352 335 326 321 300 270 256 244 234 233 233 226 218 218 224 241 259 269 278 286 291 298 306 312 315 283 266 282 281 273 271 271 271 273 277 282 292 301 299 291 290 291 286 273 254 241 240 246 259 280 304 310 310 312 310 305 307 307 303 290 266 241 226 223 226 224 217 209 204 201 200 199 195 189 185 182 180 179 177 175 171 166 162 159 154 147 146
20 13 352 345 342 300 263 238 216 206 201 197 200 206 209 215 227 240 252 265 282 293 296 296 290 273 263 257 252 253 255 257 260 262 258 252 256 258 249 245 251 254 249 241 236 236 234 232 237 252 272 287 291 291 288 286 290 292 288 279 257 232 212 201 202 208 207 202 198 195 191 188 186 183 180 179 179 177 172 166 159 155 153 151 147 146 149
36 42 42 44 54 52 3 212 189 179 170 167 172 177 178 182 192 204 217 242 273 279 269 255 247 243 242 247 252 245 235 236 244 236 202 190 186 178 187 210 229 234 227 220 220 224 223 219 223 233 239 247 265 271 271 269 272 275 269 257 243 226 209 195 186 184 185 188 192 189 181 176 175 175 172 169 166 163 160 156 153 153 153 152 150 150 152
38 44 48 56 69 76 82 108 137 143 138 137 142 148 152 159 168 177 189 216 233 217 203 199 202 204 208 219 224 211 201 201 199 185 174 167 161 163 178 195 201 200 202 202 198 195 196 200 209 217 215 207 216 237 250 256 261 260 249 237 227 215 205 197 188 178 172 170 173 176 174 170 166 164 162 160 157 156 156 155 154 154 155 153 152 152 150
35 41 45 51 60 67 71 79 92 104 107 107 111 120 129 135 143 156 169 178 175 170 167 168 172 174 171 168 166 167 165 161 160 162 159 151 150 159 167 165 163 172 180 177 163 161 173 185 194 200 198 190 188 191 198 214 234 241 232 221 213 205 197 193 187 181 172 164 162 165 168 168 164 160 159 159 159 157 156 155 154 155 154 152 152 154 152
35 37 41 46 53 58 63 69 75 80 83 83 84 89 99 109 121 133 140 138 137 141 144 147 149 148 145 143 143 143 140 137 140 145 145 144 152 159 145 122 115 123 130 133 142 152 164 176 184 186 184 182 181 178 178 182 193 207 212 208 201 195 192 188 183 178 173 167 162 160 160 160 159 157 155 155 156 156 156 157 157 157 156 155 156 156 154
35 35 38 43 48 51 55 60 65 68 73 76 76 75 78 87 99 110 114 113 115 120 125 130 133 133 132 132 131 127 123 121 124 130 134 139 151 149 124 103 96 95 94 103 133 146 152 168 180 181 175 172 171 170 170 171 173 178 186 193 193 189 186 183 179 173 170 168 166 163 160 158 157 156 154 154 155 156 157 158 159 159 158 158 158 157 154
37 36 38 41 44 46 48 51 55 58 64 69 72 73 72 74 80 86 89 90 95 102 108 116 121 121 116 114 114 113 112 111 113 116 120 125 132 128 112 99 95 96 95 99 115 123 130 151 168 172 169 166 164 163 164 166 166 165 166 171 176 178 178 177 173 169 166 165 165 165 163 162 161 159 157 157 157 156 154 154 156 159 160 159 159 162 162
38 39 40 42 43 45 45 46 49 54 59 63 67 71 72 72 74 76 75 75 80 86 90 96 102 104 102 101 102 102 102 102 103 107 112 116 117 112 104 96 93 96 98 100 105 108 109 118 134 148 156 157 155 156 159 161 161 159 158 159 161 164 167 170 169 165 163 162 162 162 161 161 161 158 155 153 152 151 149 150 152 154 155 154 157 163 165
38 40 41 41 43 46 46 45 46 51 55 59 63 67 68 68 70 73 74 74 76 79 82 85 89 92 93 95 95 95 94 92 91 94 98 101 99 97 95 93 92 95 98 99 99 100 97 91 90 101 120 131 132 137 146 151 150 147 148 149 151 152 156 160 162 161 160 160 159 157 156 156 155 152 150 149 147 144 144 145 146 145 146 148 152 158 160
38 39 41 42 42 44 47 48 48 50 53 57 61 65 65 64 66 69 72 73 74 74 77 80 84 86 88 90 90 89 89 87 86 86 88 88 86 86 87 87 87 88 89 90 90 90 90 88 86 86 89 94 96 97 103 111 114 115 119 126 131 133 135 138 142 146 149 150 148 147 146 146 146 145 144 143 140 136 136 137 137 139 143 147 150 156 163
42 41 41 43 42 41 44 47 49 50 52 57 61 64 63 62 62 64 67 70 72 72 73 75 78 80 82 83 83 84 84 84 84 84 84 84 84 83 82 82 82 83 82 83 84 84 83 84 87 88 89 90 91 88 85 85 85 83 83 89 99 106 110 112 115 119 123 126 128 129 130 129 129 128 128 127 125 125 125 125 126 131 136 138 139 143 149
48 46 44 42 42 41 42 46 49 51 54 58 61 62 61 61 64 65 66 68 70 72 72 72 73 75 76 77 77 77 78 78 78 78 77 78 79 80 81 82 82 81 81 81 80 80 80 81 83 84 86 89 92 93 92 91 91 89 85 82 81 82 85 88 91 95 99 102 105 106 108 109 111 112 112 112 112 112 112 111 110 110 110 111 112 111 110
49 49 46 44 44 43 42 44 49 55 58 60 61 61 60 61 64 67 69 70 73 74 74 74 75 77 78 78 78 78 77 76 75 73 74 75 77 78 79 80 79 78 78 78 77 76 76 77 77 78 80 82 85 89 91 92 92 93 93 90 86 82 79 77 76 78 82 86 89 90 91 92 94 95 96 97 99 100 99 99 98 95 92 93 93 90 87
46 48 48 47 46 45 42 41 46 55 59 59 60 61 63 63 62 61 64 72 79 81 79 78 79 80 79 76 75 75 76 77 76 74 73 74 76 75 73 74 74 74 74 74 74 75 75 74 73 75 77 76 76 77 79 82 85 89 90 88 86 84 82 79 77 77 78 81 83 84 84 83 83 84 86 87 87 88 87 87 85 82 79 78 77 73 70
42 41 42 45 46 47 47 48 51 56 58 58 57 57 59 64 68 66 66 72 80 84 83 83 82 80 78 75 74 73 72 75 78 78 75 73 73 72 70 68 69 70 72 72 73 73 73 73 73 74 74 73 72 72 72 73 75 78 79 79 78 78 78 78 78 78 80 81 81 81 81 79 76 75 76 76 76 76 75 74 73 69 65 62 60 57 53
43 39 38 40 43 46 50 56 63 68 68 65 64 62 60 63 70 73 70 72 78 83 86 87 88 85 81 77 76 75 73 72 76 80 79 76 75 75 73 70 68 67 69 72 74 73 71 70 71 71 71 71 72 73 75 76 77 77 78 78 78 76 76 76 76 77 78 77 76 75 76 74 69 65 63 62 61 58 55 54 54 51 48 46 44 41 36
46 45 43 42 41 44 54 62 70 76 75 72 71 69 65 64 68 70 70 71 76 81 85 88 91 92 89 85 81 80 78 77 77 78 79 78 79 79 78 77 75 72 72 75 78 77 75 73 72 73 73 73 75 77 79 81 83 84 86 87 87 87 88 89 90 89 87 83 80 78 77 74 70 65 60 54 49 43 38 37 37 36 34 33 33 31 28
47 47 47 47 48 55 67 71 73 76 75 71 69 69 70 69 69 68 68 70 74 79 84 88 90 92 92 92 89 86 85 84 82 80 79 80 81 82 82 82 81 81 81 83 85 84 83 82 82 83 82 82 83 85 88 89 90 91 93 95 97 98 100 99 98 95 90 86 84 82 79 75 71 67 62 58 53 48 43 39 36 32 28 27 26 26 25
51 49 48 47 49 58 77 86 83 83 83 79 75 75 75 74 72 69 68 70 72 76 80 85 88 91 93 94 92 90 87 86 84 82 80 81 82 83 84 84 85 85 87 89 91 92 92 92 93 94 95 97 97 98 99 100 100 100 102 102 102 102 102 100 98 95 92 89 84 80 77 75 72 70 67 64 58 52 46 40 33 27 22 19 16 14 11